Flag for United Kingdom Weather past 2 weeks in Wakefield, England, United Kingdom

Now
55 °F

Scattered clouds.


Feels Like: 52 °F
Forecast: 44 / 63 °F
Wind: 15 mph from West

Location: Leeds And Bradford

Current Time: Aug 22, 2014 at 5:09:26 PM

Latest Report: Aug 22, 2014 at 4:20 PM


Visibility: N/A

Pressure: 29.86 "Hg

Humidity: 59%

Dew point: 41 °F

Location of WakefieldLocation

Historic Weather in Wakefield — Graph

°F

Wakefield temperature yesterday

Maximum temperature yesterday: 57 °F (at 1:50 PM)
Minimum temperature yesterday: 48 °F (at 4:20 AM)
Average temperature yesterday: 51 °F

Past Weeks' High & Low Weather Summary

 TemperatureHumidityPressure
High66 °F (Aug 7, 3:50 PM)100% (Aug 8, 4:50 PM)30.09 "Hg (Aug 8, 4:50 PM)
Low43 °F (Aug 20, 4:50 AM)46% (Aug 7, 5:20 PM)29.24 "Hg (Aug 10, 2:20 PM)
Average55 °F82%29.74 "Hg
* Reported Aug 7 3:20 PM — Aug 22 3:50 PM, Wakefield, Weather by CustomWeather, © 2014

Note: Actual official high and low records may vary slightly from our data, if they occured in-between our weather recording intervals... More about our weather records

Advertising

Wakefield weather history for previous 24 hours

 ConditionsComfort  
Time TempWeatherWind HumidityBarometerVisibility
3:50 PM
Aug 22
57 °FSprinkles. Scattered clouds.15 mph55%29.83 "HgN/A
3:20 PM57 °FScattered clouds.9 mph48%29.83 "HgN/A
2:50 PM59 °FScattered clouds.10 mph51%29.83 "HgN/A
2:20 PM59 °FScattered clouds.10 mph51%29.83 "HgN/A
1:50 PM57 °FScattered clouds.8 mph55%29.83 "HgN/A
1:20 PM57 °FScattered clouds.7 mph55%29.83 "HgN/A
12:50 PM55 °FScattered clouds.7 mph63%29.83 "HgN/A
12:20 PM57 °FScattered clouds.6 mph59%29.83 "HgN/A
11:50 AM57 °FScattered clouds.6 mph63%29.80 "HgN/A
11:20 AM55 °FScattered clouds.6 mph63%29.80 "HgN/A
10:50 AM54 °FScattered clouds.6 mph67%29.80 "HgN/A
10:20 AM52 °FScattered clouds.9 mph77%29.80 "HgN/A
9:50 AM52 °FScattered clouds.7 mph77%29.80 "HgN/A
9:20 AM52 °FScattered clouds.8 mph82%29.80 "HgN/A
8:50 AM50 °FScattered clouds.7 mph88%29.80 "HgN/A
8:20 AM50 °FScattered clouds.6 mph88%29.77 "HgN/A
7:50 AM50 °FScattered clouds.5 mph88%29.77 "HgN/A
7:20 AM48 °FBroken clouds.5 mph94%29.77 "HgN/A
6:50 AM48 °FPartly cloudy.7 mph94%29.74 "HgN/A
6:20 AM48 °FPassing clouds.6 mph94%29.74 "HgN/A
5:50 AM48 °FPassing clouds.8 mph94%29.74 "HgN/A
5:20 AM48 °FPassing clouds.7 mph100%29.74 "HgN/A
4:50 AM46 °FPassing clouds.8 mph100%29.74 "HgN/A
4:20 AM48 °FPassing clouds.9 mph100%29.74 "HgN/A
3:20 AM48 °FPassing clouds.6 mph94%29.74 "HgN/A
2:50 AM50 °FPassing clouds.7 mph94%29.74 "HgN/A
2:20 AM50 °FPassing clouds.7 mph100%29.74 "HgN/A
1:50 AM50 °FPassing clouds.3 mph100%29.74 "HgN/A
1:20 AM50 °FSprinkles. Passing clouds.5 mph100%29.74 "HgN/A
12:50 AM50 °FPassing clouds.8 mph94%29.74 "HgN/A
12:20 AM48 °FPassing clouds.3 mph100%29.74 "HgN/A
11:50 PM
Aug 21
48 °FPassing clouds.7 mph100%29.74 "HgN/A
11:20 PM48 °FSprinkles. Passing clouds.7 mph100%29.74 "HgN/A
10:50 PM50 °FSprinkles. Passing clouds.7 mph94%29.74 "HgN/A
10:20 PM50 °FLight rain. Partly cloudy.8 mph100%29.74 "HgN/A
9:50 PM52 °FSprinkles. Passing clouds.8 mph94%29.74 "HgN/A
9:20 PM52 °FSprinkles. Scattered clouds.9 mph94%29.74 "HgN/A
8:50 PM52 °FSprinkles. Scattered clouds.12 mph94%29.74 "HgN/A
8:20 PM52 °FSprinkles. Scattered clouds.14 mph94%29.74 "HgN/A
7:50 PM54 °FSprinkles. Scattered clouds.8 mph88%29.74 "HgN/A
7:20 PM54 °FSprinkles. Scattered clouds.10 mph88%29.74 "HgN/A
6:50 PM55 °FScattered clouds.13 mph77%29.74 "HgN/A
6:20 PM55 °FSprinkles. Scattered clouds.13 mph77%29.74 "HgN/A
5:50 PM55 °FScattered clouds.15 mph77%29.74 "HgN/A
5:20 PM55 °FScattered clouds.13 mph77%29.77 "HgN/A
Weather by CustomWeather, © 2014

See weather overviewHow to use our weather pages